Regional Weather Roundup
Issued by NWS

Home | Current Version | Previous Version | Text Only | Print | Product List | Glossary Off
Versions: 1 2 3 4 5 6 7 8 9 10 11 12 13 14 15 16 17 18 19 20 21 22 23 24 25 26 27

000
ASUS45 KSLC 242110
RWRUT

UTAH REGIONAL WEATHER ROUNDUP
NATIONAL WEATHER SERVICE SALT LAKE CITY UT
300 PM MDT FRI MAR 24 2017

UTZ001>011-023>025-242200-

NORTHERN UTAH

CITY           SKY/WX    TMP DP  RH WIND       PRES   REMARKS
BRIGHAM CITY     N/A     54  33  44 SW8       30.16F
HILL AFB       SUNNY     54  30  40 SW13      30.15F
LOGAN          SUNNY     55  33  43 S12       30.14F
OGDEN          SUNNY     54  29  38 S12       30.15F
SALT LAKE CITY MOSUNNY   56  32  40 S13       30.14F
WENDOVER       SUNNY     59  27  29 SE18G24   30.10F
HEBER CITY     SUNNY     57  28  33 W8        30.14F

$$

UTZ011>015-024>027-242200-

CENTRAL/NORTHEAST UTAH

CITY           SKY/WX    TMP DP  RH WIND       PRES   REMARKS
PROVO AIRPORT  SUNNY     53  36  52 SW6       30.18F
MOAB/CANYONLAN SUNNY     62  26  25 VRB7      30.13F
DELTA          SUNNY     50  32  50 SE7       30.19F
PRICE          MOSUNNY   53  30  41 S8        30.19F
ROOSEVELT      MOSUNNY   55  32  41 S6        30.20F
VERNAL         MOSUNNY   55  30  38 W7        30.17F

$$

UTZ013>016-019>022-027-242200-

SOUTHERN UTAH

CITY           SKY/WX    TMP DP  RH WIND       PRES   REMARKS
BRYCE CANYON   SUNNY     51  16  24 SE8       30.24F
CEDAR CITY     SUNNY     58  27  30 SW6       30.19F
MILFORD          N/A    N/A N/A N/A S14       30.17F
ST GEORGE      CLEAR     64  27  24 CALM      30.17F
HANKSVILLE     SUNNY     61  27  27 N8        30.19F
BLANDING       SUNNY     61  24  23 NW12G22   30.22S

$$

REGIONAL REPORTS     COLORADO/ARIZONA

CITY           SKY/WX    TMP DP  RH WIND       PRES   REMARKS
CRAIG, CO      MOSUNNY   55  22  27 VRB5      30.16F
GRAND JUNCTION MOSUNNY   61  29  29 S10       30.13F
RIFLE, CO      MOSUNNY   57  26  30 SW9       30.13F
MONTROSE, CO   MOSUNNY   55  27  34 MISG      30.16F
CORTEZ, CO     SUNNY     58  31  35 NW17G23   30.13F
COLORADO CITY    N/A     63  25  23 W6        30.24F
PAGE, AZ       SUNNY     63  32  31 NE8       30.18F
GRAND CANYON   SUNNY     54  30  40 S3G17     30.27F
KINGMAN, AZ    SUNNY     68  13  12 S8        30.20F
FLAGSTAFF, AZ  SUNNY     53  19  26 W6        30.26F

$$

REGIONAL REPORTS    NEVADA/IDAHO/WYOMING

CITY           SKY/WX    TMP DP  RH WIND       PRES   REMARKS
LAS VEGAS, NV  MOSUNNY   73  30  20 E10       30.12F
ELY, NY        CLOUDY    55  25  31 SE17      30.13F
ELKO, NV       CLOUDY    57  30  35 S14       30.03F
POCATELLO, ID  SUNNY     57  25  29 S26G35    30.07F
BURLEY, ID     PTSUNNY   59  21  23 SW25      30.02F
FORT BRIDGER,    N/A     51  23  33 E3        30.20F
EVANSTON, WY   SUNNY     45  29  53 VRB3      30.18F
ROCK SPRINGS,  MOSUNNY   49  29  46 VRB6      30.18F
KEMMERER, WY     N/A     43  28  56 W5        30.20F

$$




USA.gov is the U.S. government's official web portal to all federal, state and local government web resources and services.